Aberdeen / Amory, MS

3:52 AM CST on December 14, 2019 (GMT -0600)
Aberdeen / Amory

Weather History for KM40 - June, 2019

Change the Weather History Date:

Friday, June 7, 2019

  Actual Average (KCBM) Record (KCBM)
Temperature  
Mean Temperature 78 °F -  
Max Temperature 86 °F 84 °F 96 °F (2007)
Min Temperature 68 °F 66 °F 51 °F (1998)
Cooling Degree Days 12    
Growing Degree Days 28 (Base 50)    
Moisture  
Dew Point 75 °F    
Average Humidity 100    
Maximum Humidity 100    
Minimum Humidity 100    
Precipitation  
Precipitation 0.00 in - - ()
Sea Level Pressure  
Sea Level Pressure 29.70 in    
Wind  
Wind Speed 3 mph ()    
Max Wind Speed 10 mph    
Max Gust Speed 16 mph    
Visibility 8.5 miles    
Events      
Averages and records for this station are not official NWS values.
T = Trace of Precipitation, MM = Missing Value Source: Averaged Metar Reports

Daily Weather History Graph

Daily Weather History Graph

Search for Another Location

Airport or City:

Astronomy

Jun. 07, 2019 Rise Set
Actual Time 5:42 AM CDT 8:02 PM CDT
Civil Twilight 5:13 AM CDT 8:31 PM CDT
Nautical Twilight 4:38 AM CDT 9:07 PM CDT
Astronomical Twilight 3:59 AM CDT 9:46 PM CDT
Moon 9:56 AM CDT (6/7) No Moon Set
Length of Visible Light 15h 17m
Length of Day
14h 20m
Waxing Crescent, 22% of the Moon is Illuminated
Jun 7
Waxing Crescent
Jun 10
First Quarter
Jun 17
Full
Jun 25
Last Quarter
Jul 2
New

Hourly Weather History & Observations

Time (CDT) Temp. Heat Index Dew Point Humidity Pressure Visibility Wind Dir Wind Speed Gust Speed Precip Events Conditions
12:15 AM 73.4 °F - 73.4 °F 100% 29.70 in 7.0 mi ESE 5.8 mph - N/A   Overcast
12:35 AM 73.4 °F - 73.4 °F 100% 29.70 in 10.0 mi Calm Calm - N/A   Overcast
12:55 AM 73.4 °F - 73.4 °F 100% 29.69 in 10.0 mi Calm Calm - N/A   Mostly Cloudy
1:15 AM 71.6 °F - 71.6 °F 100% 29.68 in 10.0 mi Calm Calm - N/A   Partly Cloudy
1:35 AM 71.6 °F - 71.6 °F 100% 29.69 in 5.0 mi Calm Calm - N/A   Partly Cloudy
1:55 AM 71.6 °F - 71.6 °F 100% 29.69 in 3.0 mi Calm Calm - N/A   Mostly Cloudy
2:15 AM 71.6 °F - 71.6 °F 100% 29.69 in 1.5 mi Calm Calm - N/A   Overcast
2:35 AM 71.6 °F - 71.6 °F 100% 29.68 in 3.0 mi Calm Calm - N/A   Overcast
2:55 AM 71.6 °F - 71.6 °F 100% 29.69 in 3.0 mi Calm Calm - N/A   Overcast
3:15 AM 71.6 °F - 71.6 °F 100% 29.68 in 7.0 mi Calm Calm - N/A   Overcast
3:35 AM 71.6 °F - 71.6 °F 100% 29.68 in 7.0 mi Calm Calm - N/A   Overcast
4:15 AM 71.6 °F - 71.6 °F 100% 29.68 in 5.0 mi Calm Calm - N/A   Mostly Cloudy
4:35 AM 71.6 °F - 71.6 °F 100% 29.68 in 2.5 mi Calm Calm - N/A   Overcast
4:55 AM 71.6 °F - 71.6 °F 100% 29.69 in 7.0 mi South 5.8 mph - N/A   Overcast
5:15 AM 71.6 °F - 71.6 °F 100% 29.70 in 9.0 mi SSW 4.6 mph - N/A   Overcast
5:35 AM - - - N/A% 29.71 in 7.0 mi SW 4.6 mph - N/A   Overcast
5:55 AM 73.4 °F - 73.4 °F 100% 29.71 in 3.0 mi WSW 5.8 mph - N/A   Overcast
6:15 AM 73.4 °F - 73.4 °F 100% 29.72 in 8.0 mi SSW 5.8 mph - N/A   Overcast
6:35 AM 73.4 °F - 73.4 °F 100% 29.72 in 8.0 mi SSW 3.5 mph - N/A   Overcast
6:55 AM 73.4 °F - 73.4 °F 100% 29.71 in 8.0 mi Calm Calm - N/A   Overcast
7:15 AM 73.4 °F - 73.4 °F 100% 29.71 in 7.0 mi Calm Calm - N/A   Overcast
7:35 AM - - - N/A% 29.72 in 9.0 mi SW 3.5 mph - N/A   Overcast
7:55 AM - - - N/A% 29.72 in 9.0 mi Calm Calm - N/A   Overcast
8:15 AM 75.2 °F - 75.2 °F 100% 29.73 in 9.0 mi Calm Calm - N/A   Overcast
8:35 AM 77.0 °F - 77.0 °F 100% 29.72 in 9.0 mi SW 4.6 mph - N/A   Mostly Cloudy
8:55 AM 77.0 °F - 77.0 °F 100% 29.73 in 9.0 mi WSW 3.5 mph - N/A   Scattered Clouds
9:15 AM 78.8 °F - 78.8 °F 100% 29.73 in 8.0 mi SSW 5.8 mph - N/A   Scattered Clouds
9:35 AM 78.8 °F - 78.8 °F 100% 29.73 in 10.0 mi SW 8.1 mph - N/A   Mostly Cloudy
9:55 AM - - - N/A% 29.73 in 7.0 mi WSW 9.2 mph - N/A   Scattered Clouds
10:35 AM 80.6 °F 89.3 °F 80.6 °F 100% 29.73 in 9.0 mi SSW 8.1 mph - N/A   Mostly Cloudy
10:55 AM 80.6 °F 89.3 °F 80.6 °F 100% 29.73 in 10.0 mi SW 6.9 mph - N/A   Partly Cloudy
11:15 AM 82.4 °F 96.1 °F 82.4 °F 100% 29.73 in 9.0 mi South 8.1 mph - N/A   Mostly Cloudy
11:35 AM 82.4 °F 96.1 °F 82.4 °F 100% 29.73 in 9.0 mi Variable 6.9 mph 13.8 mph N/A   Mostly Cloudy
11:55 AM 82.4 °F 96.1 °F 82.4 °F 100% 29.72 in 10.0 mi SSW 10.4 mph - N/A   Mostly Cloudy
12:15 PM 82.4 °F 96.1 °F 82.4 °F 100% 29.71 in 9.0 mi SSW 8.1 mph - N/A   Mostly Cloudy
12:35 PM 82.4 °F 96.1 °F 82.4 °F 100% 29.71 in 9.0 mi Variable 3.5 mph 11.5 mph N/A   Mostly Cloudy
12:55 PM 84.2 °F 103.5 °F 84.2 °F 100% 29.70 in 9.0 mi Variable 4.6 mph 13.8 mph N/A   Scattered Clouds
1:15 PM 84.2 °F 103.5 °F 84.2 °F 100% 29.70 in 10.0 mi West 5.8 mph 12.7 mph N/A   Scattered Clouds
1:35 PM 84.2 °F 103.5 °F 84.2 °F 100% 29.70 in 9.0 mi Variable 5.8 mph - N/A   Partly Cloudy
1:55 PM 84.2 °F 103.5 °F 84.2 °F 100% 29.69 in 9.0 mi WSW 8.1 mph - N/A   Partly Cloudy
2:15 PM - - - N/A% 29.68 in 9.0 mi West 5.8 mph 11.5 mph N/A   Clear
2:35 PM 86.0 °F 111.5 °F 86.0 °F 100% 29.68 in 10.0 mi Variable 5.8 mph - N/A   Partly Cloudy
2:55 PM 86.0 °F 111.5 °F 86.0 °F 100% 29.68 in 9.0 mi WSW 8.1 mph - N/A   Partly Cloudy
3:15 PM 86.0 °F 111.5 °F 86.0 °F 100% 29.67 in 10.0 mi NW 4.6 mph 11.5 mph N/A   Partly Cloudy
3:35 PM 82.4 °F 96.1 °F 82.4 °F 100% 29.67 in 10.0 mi West 5.8 mph - N/A   Clear
3:55 PM 82.4 °F 96.1 °F 82.4 °F 100% 29.65 in 10.0 mi NW 4.6 mph - N/A   Clear
4:15 PM 80.6 °F 89.3 °F 80.6 °F 100% 29.68 in 9.0 mi WSW 3.5 mph - N/A   Scattered Clouds
4:35 PM 78.8 °F - 78.8 °F 100% 29.67 in 10.0 mi SW 3.5 mph - N/A   Mostly Cloudy
4:55 PM 73.4 °F - 73.4 °F 100% 29.68 in 6.0 mi South 8.1 mph 16.1 mph N/A   Light Drizzle
5:15 PM - - - N/A% 29.68 in 10.0 mi South 6.9 mph - N/A   Scattered Clouds
5:35 PM 73.4 °F - 73.4 °F 100% 29.68 in 10.0 mi SSE 5.8 mph - N/A   Partly Cloudy
5:55 PM 73.4 °F - 73.4 °F 100% 29.68 in 10.0 mi South 8.1 mph - N/A   Clear
6:15 PM 73.4 °F - 73.4 °F 100% 29.67 in 10.0 mi South 10.4 mph - N/A   Clear
6:35 PM 71.6 °F - 71.6 °F 100% 29.67 in 10.0 mi South 4.6 mph - N/A   Scattered Clouds
6:55 PM 71.6 °F - 71.6 °F 100% 29.67 in 9.0 mi South 3.5 mph - N/A   Partly Cloudy
7:15 PM 71.6 °F - 71.6 °F 100% 29.67 in 8.0 mi SSW 6.9 mph - N/A   Clear
7:35 PM 71.6 °F - 71.6 °F 100% 29.68 in 10.0 mi South 3.5 mph - N/A   Clear
7:55 PM 69.8 °F - 69.8 °F 100% 29.69 in 9.0 mi Calm Calm - N/A   Clear
8:15 PM 69.8 °F - 69.8 °F 100% 29.70 in 10.0 mi Calm Calm - N/A   Scattered Clouds
8:35 PM 69.8 °F - 69.8 °F 100% 29.70 in 10.0 mi Calm Calm - N/A   Overcast
8:55 PM 69.8 °F - 69.8 °F 100% 29.71 in 10.0 mi SSE 5.8 mph - N/A   Partly Cloudy
9:15 PM 69.8 °F - 69.8 °F 100% 29.71 in 10.0 mi SE 4.6 mph - N/A   Scattered Clouds
9:35 PM 69.8 °F - 69.8 °F 100% 29.72 in 10.0 mi North 5.8 mph - N/A   Scattered Clouds
9:55 PM 69.8 °F - 69.8 °F 100% 29.72 in 10.0 mi Calm Calm - N/A   Scattered Clouds
10:15 PM 69.8 °F - 69.8 °F 100% 29.72 in 10.0 mi SE 4.6 mph - N/A   Scattered Clouds
10:35 PM 69.8 °F - 69.8 °F 100% 29.72 in 10.0 mi SE 3.5 mph - N/A   Clear
10:55 PM - - - N/A% 29.71 in 10.0 mi SE 5.8 mph - N/A   Clear
11:15 PM - - - N/A% 29.71 in 10.0 mi SE 5.8 mph - N/A   Clear
11:35 PM 69.8 °F - 69.8 °F 100% 29.71 in 10.0 mi SSE 5.8 mph - N/A   Clear
11:55 PM 68.0 °F - 68.0 °F 100% 29.71 in 10.0 mi SE 5.8 mph - N/A   Clear